KK7KRZ Weather Reports


time (UTC)temp
F
wind
direction
speed
knots
gust
knots
rain 1hr
in
rain 24hr
in
rain mn
in
humidity
%
barometer
mb
20260507110404 53 143 0.0 0.9 0.00 0.00 0.00 87 1020.6
20260507105901 53 160 0.0 0.0 0.00 0.00 0.00 87 1020.7
20260507105358 53 156 0.0 0.0 0.00 0.00 0.00 87 1020.5
20260507104854 53 74 0.0 0.0 0.00 0.00 0.00 87 1020.5
20260507104351 53 162 0.0 0.0 0.00 0.00 0.00 87 1020.5
20260507103847 53 158 0.0 0.0 0.00 0.00 0.00 87 1020.6
20260507103344 53 127 0.0 0.0 0.00 0.00 0.00 87 1020.5
20260507102840 53 143 0.0 0.9 0.00 0.00 0.00 87 1020.7
20260507102337 53 160 0.0 0.0 0.00 0.00 0.00 87 1020.6
20260507101833 53 133 0.0 0.0 0.00 0.00 0.00 87 1020.6
20260507101327 53 160 0.0 0.0 0.00 0.00 0.00 87 1020.8
20260507100825 53 158 0.0 0.0 0.00 0.00 0.00 87 1020.8
20260507100323 53 153 0.0 0.0 0.00 0.00 0.00 87 1020.9
20260507095821 53 162 0.0 0.0 0.00 0.00 0.00 87 1020.7
20260507095317 53 132 0.0 0.9 0.00 0.00 0.00 87 1020.8
20260507094814 53 143 0.0 0.0 0.00 0.00 0.00 87 1020.9
20260507094311 53 162 0.0 0.0 0.00 0.00 0.00 88 1021.0
20260507093807 53 161 0.0 0.0 0.00 0.00 0.00 88 1021.0
20260507093306 53 163 0.0 0.0 0.00 0.00 0.00 88 1021.0
20260507092804 53 163 0.0 0.0 0.00 0.00 0.00 88 1021.0
20260507092300 53 161 0.0 0.0 0.00 0.00 0.00 87 1021.2
20260507091756 53 157 0.0 0.0 0.00 0.00 0.00 87 1021.1
20260507091253 53 163 0.0 0.0 0.00 0.00 0.00 87 1021.3
20260507090748 53 159 0.0 0.0 0.00 0.00 0.00 87 1021.4
20260507090245 53 156 0.0 0.0 0.00 0.00 0.00 87 1021.2
20260507085742 53 164 0.0 0.0 0.00 0.00 0.00 87 1021.4
20260507085239 53 158 0.0 0.0 0.00 0.00 0.00 87 1021.3
20260507084736 53 145 0.0 0.9 0.00 0.00 0.00 87 1021.4
20260507084232 53 157 0.0 0.0 0.00 0.00 0.00 87 1021.3
20260507083730 53 157 0.0 0.0 0.00 0.00 0.00 87 1021.2
20260507083226 53 161 0.0 0.0 0.00 0.00 0.00 87 1021.1
20260507082722 53 159 0.0 0.0 0.00 0.00 0.00 87 1021.1
20260507082218 53 165 0.0 0.0 0.00 0.00 0.00 87 1021.3
20260507081715 53 164 0.0 0.0 0.00 0.00 0.00 87 1021.2
20260507081211 53 160 0.0 0.0 0.00 0.00 0.00 87 1021.3
20260507080708 53 165 0.0 0.0 0.00 0.00 0.00 87 1021.3
20260507080204 53 150 0.0 0.0 0.00 0.00 0.00 87 1021.2
20260507075700 53 161 0.0 0.0 0.00 0.00 0.00 87 1021.4
20260507075156 53 149 0.0 0.0 0.00 0.00 0.00 87 1021.3
20260507074653 53 167 0.0 0.0 0.00 0.00 0.00 87 1021.3
20260507074151 53 166 0.0 0.0 0.00 0.00 0.00 87 1021.3
20260507073647 53 162 0.0 0.0 0.00 0.00 0.00 87 1021.4
20260507073143 53 157 0.0 0.0 0.00 0.00 0.00 87 1021.4
20260507072642 53 151 0.0 0.0 0.00 0.00 0.00 86 1021.3
20260507072138 53 164 0.0 0.0 0.00 0.00 0.00 86 1021.2
20260507071636 53 158 0.0 0.9 0.00 0.00 0.00 86 1021.0
20260507071132 53 155 0.0 0.0 0.00 0.00 0.00 86 1021.2
20260507070629 53 175 0.0 0.0 0.00 0.00 0.00 87 1021.3
20260507070126 53 158 0.0 0.0 0.00 0.00 0.00 87 1021.1
20260507065623 53 164 0.0 0.0 0.00 0.00 0.00 87 1021.2
20260507065120 53 153 0.0 0.0 0.00 0.00 0.00 87 1021.2
20260507064617 53 153 0.0 0.0 0.00 0.00 0.00 87 1021.0
20260507064116 53 156 0.0 0.0 0.00 0.00 0.00 87 1021.2
20260507063613 52 162 0.0 0.0 0.00 0.00 0.00 87 1021.2
20260507063110 52 160 0.0 0.0 0.00 0.00 0.00 87 1021.0
20260507062606 52 13 0.0 0.0 0.00 0.00 0.00 87 1021.4
20260507062104 52 158 0.0 0.0 0.00 0.00 0.00 87 1021.2
20260507061602 52 160 0.0 0.0 0.00 0.00 0.00 87 1021.1
20260507061100 52 149 0.0 0.0 0.00 0.00 0.00 87 1021.2
20260507060557 52 162 0.0 0.0 0.00 0.00 0.00 87 1021.1
20260507060054 52 163 0.0 0.9 0.00 0.00 0.00 87 1021.3
20260507055554 52 159 0.0 0.0 0.00 0.00 0.00 87 1021.1
20260507055050 52 130 0.0 0.9 0.00 0.00 0.00 86 1021.0
20260507054546 52 157 0.0 0.0 0.00 0.00 0.00 86 1021.0
20260507054044 52 96 0.0 0.9 0.00 0.00 0.00 86 1021.1
20260507053542 52 106 0.0 0.9 0.00 0.00 0.00 86 1021.1
20260507053040 52 26 2.6 2.6 0.00 0.00 0.00 86 1020.9
20260507052537 52 152 0.0 0.9 0.00 0.00 0.00 86 1021.0
20260507052034 52 196 0.9 0.9 0.00 0.00 0.00 86 1020.8
20260507051532 53 152 0.0 0.0 0.00 0.00 0.00 85 1021.0
20260507051028 53 99 0.9 1.7 0.00 0.00 0.00 85 1021.0
20260507050525 53 72 0.9 1.7 0.00 0.00 0.00 85 1020.9
20260507050021 53 67 0.9 1.7 0.00 0.00 0.00 85 1020.9
20260507045518 53 36 1.7 2.6 0.00 0.00 0.00 85 1020.9
20260507045015 53 156 0.0 0.0 0.00 0.00 0.00 85 1020.8
20260507044512 53 149 0.0 0.0 0.00 0.00 0.00 85 1020.9
20260507044008 53 154 0.0 0.9 0.00 0.00 0.00 85 1021.0
20260507043505 53 124 0.9 0.9 0.00 0.00 0.00 85 1021.0
20260507043001 53 160 0.9 0.9 0.00 0.00 0.00 86 1020.6
20260507042458 53 136 0.0 0.0 0.00 0.00 0.00 86 1020.6
20260507041954 53 32 0.9 0.9 0.00 0.00 0.00 86 1020.7
20260507041451 53 151 0.0 0.9 0.00 0.00 0.00 86 1020.6
20260507040947 53 162 0.0 0.0 0.00 0.00 0.00 86 1020.4
20260507040443 54 163 0.0 0.0 0.00 0.00 0.00 85 1020.5
20260507035939 54 77 0.9 1.7 0.00 0.00 0.00 85 1020.4
20260507035436 54 162 0.0 0.0 0.00 0.00 0.00 85 1020.2
20260507034933 54 154 0.9 0.9 0.00 0.00 0.00 85 1020.3
20260507034430 55 161 0.0 0.0 0.00 0.00 0.00 84 1020.1
20260507033928 55 152 0.9 0.9 0.00 0.00 0.00 84 1020.0
20260507033425 55 157 0.0 0.0 0.00 0.00 0.00 83 1020.2
20260507032922 55 159 1.7 2.6 0.00 0.00 0.00 83 1020.1
20260507032419 56 162 0.0 0.0 0.00 0.00 0.00 83 1020.0
20260507031915 56 165 0.0 0.0 0.00 0.00 0.00 82 1020.1
20260507031412 56 159 0.0 0.0 0.00 0.00 0.00 82 1019.9
20260507030909 57 157 0.0 0.0 0.00 0.00 0.00 81 1019.9
20260507030406 57 158 0.0 0.0 0.00 0.00 0.00 81 1019.8
20260507025903 57 157 0.0 0.0 0.00 0.00 0.00 80 1019.8
20260507025400 57 178 0.0 0.9 0.00 0.00 0.00 80 1019.9
20260507024858 57 56 0.9 1.7 0.00 0.00 0.00 80 1019.9
20260507024355 58 156 0.0 0.0 0.00 0.00 0.00 79 1019.8
20260507023850 58 164 1.7 1.7 0.00 0.00 0.00 78 1019.7
20260507023348 58 153 0.0 0.0 0.00 0.00 0.00 78 1019.5
20260507022845 59 176 0.9 0.9 0.00 0.00 0.00 78 1019.9
20260507022341 59 170 0.9 0.9 0.00 0.00 0.00 77 1019.7
20260507021837 59 144 0.0 0.9 0.00 0.00 0.00 76 1019.7
20260507021333 60 151 0.9 1.7 0.00 0.00 0.00 76 1019.5
20260507020831 60 148 0.0 0.0 0.00 0.00 0.00 75 1019.7
20260507020327 61 170 0.0 0.0 0.00 0.00 0.00 74 1019.8
20260507015824 61 158 0.0 0.0 0.00 0.00 0.00 75 1019.7
20260507015322 61 149 1.7 1.7 0.00 0.00 0.00 74 1019.6
20260507014819 61 160 0.0 0.0 0.00 0.00 0.00 74 1019.8
20260507014316 62 152 0.0 0.0 0.00 0.00 0.00 74 1020.0
20260507013812 62 131 0.9 1.7 0.00 0.00 0.00 73 1019.6
20260507013309 62 119 0.9 0.9 0.00 0.00 0.00 73 1019.8
20260507012807 62 138 0.9 0.9 0.00 0.00 0.00 72 1019.9
20260507012306 62 117 0.0 0.9 0.00 0.00 0.00 72 1019.7
20260507011800 63 56 1.7 1.7 0.00 0.00 0.00 71 1019.8
20260507011256 63 62 0.0 0.0 0.00 0.00 0.00 71 1019.7
20260507010756 63 130 1.7 1.7 0.00 0.00 0.00 71 1019.8
20260507010252 64 151 1.7 2.6 0.00 0.00 0.00 71 1019.9
20260507005750 64 150 0.9 0.9 0.00 0.00 0.00 71 1020.0
20260507005246 64 156 0.0 0.9 0.00 0.00 0.00 70 1019.8
20260507004742 65 197 1.7 2.6 0.00 0.00 0.00 69 1019.7
20260507004240 65 134 2.6 4.3 0.00 0.00 0.00 69 1019.7
20260507003736 65 155 0.0 0.0 0.00 0.00 0.00 68 1019.6
20260507003232 66 109 0.0 0.9 0.00 0.00 0.00 68 1019.8
20260507002728 66 61 0.9 0.9 0.00 0.00 0.00 67 1019.7
20260507002224 66 152 0.9 0.9 0.00 0.00 0.00 67 1019.5
20260507001721 66 60 1.7 2.6 0.00 0.00 0.00 67 1019.7
20260507001218 67 134 1.7 1.7 0.00 0.00 0.00 67 1019.5
20260507000714 67 329 0.9 1.7 0.00 0.00 0.00 67 1019.7
20260507000212 67 134 0.9 0.9 0.00 0.00 0.00 66 1019.4
20260506235708 67 52 1.7 2.6 0.00 0.00 0.00 66 1019.5
20260506235203 68 38 1.7 2.6 0.00 0.00 0.00 65 1019.5
20260506234700 69 199 1.7 1.7 0.00 0.00 0.00 64 1019.6
20260506234157 69 148 0.0 0.9 0.00 0.00 0.00 65 1019.3
20260506233654 70 96 1.7 1.7 0.00 0.00 0.00 63 1019.5
20260506233151 70 176 0.9 0.9 0.00 0.00 0.00 65 1019.5
20260506232647 71 47 2.6 4.3 0.00 0.00 0.00 62 1019.4
20260506232143 71 159 0.9 0.9 0.00 0.00 0.00 62 1019.6
20260506231640 71 52 0.9 1.7 0.00 0.00 0.00 61 1019.6
20260506231139 72 136 0.0 0.9 0.00 0.00 0.00 59 1019.6
20260506230635 73 172 0.0 0.0 0.00 0.00 0.00 59 1019.6
20260506230132 73 170 0.9 0.9 0.00 0.00 0.00 58 1019.7
20260506225628 73 166 0.9 0.9 0.00 0.00 0.00 59 1019.8
20260506225125 73 176 0.9 0.9 0.00 0.00 0.00 58 1019.4
20260506224622 74 147 0.9 0.9 0.00 0.00 0.00 57 1019.4
20260506224118 74 135 0.9 0.9 0.00 0.00 0.00 56 1019.6
20260506223614 74 170 0.9 1.7 0.00 0.00 0.00 58 1019.8
20260506223110 73 186 0.0 0.9 0.00 0.00 0.00 58 1019.9
20260506222608 74 175 0.0 0.9 0.00 0.00 0.00 58 1019.9
20260506222104 75 170 0.0 0.0 0.00 0.00 0.00 57 1019.8
20260506221602 73 171 0.0 0.0 0.00 0.00 0.00 60 1019.9
20260506221100 74 168 1.7 1.7 0.00 0.00 0.00 57 1020.0
20260506220555 72 172 0.9 1.7 0.00 0.00 0.00 57 1019.9
20260506220051 72 153 0.0 0.0 0.00 0.00 0.00 60 1019.9
20260506215548 73 172 0.9 0.9 0.00 0.00 0.00 57 1020.0
20260506215043 72 164 0.0 0.0 0.00 0.00 0.00 60 1020.0
20260506214541 74 173 0.0 0.0 0.00 0.00 0.00 58 1020.1
20260506214038 72 177 0.0 0.9 0.00 0.00 0.00 63 1019.9
20260506213536 71 156 0.0 0.9 0.00 0.00 0.00 60 1020.0
20260506213033 73 151 0.9 0.9 0.00 0.00 0.00 58 1020.0
20260506212530 72 156 0.0 0.0 0.00 0.00 0.00 63 1020.0
20260506212024 72 166 0.0 0.9 0.00 0.00 0.00 60 1020.3
20260506211521 72 252 0.9 1.7 0.00 0.00 0.00 59 1020.3
20260506211018 70 170 0.0 0.9 0.00 0.00 0.00 63 1020.1
20260506210514 69 288 0.9 1.7 0.00 0.00 0.00 64 1020.2
20260506210011 69 133 0.9 0.9 0.00 0.00 0.00 64 1020.5
20260506205508 72 171 1.7 2.6 0.00 0.00 0.00 60 1020.1
20260506205003 72 176 0.9 0.9 0.00 0.00 0.00 62 1020.5
20260506204501 72 152 0.9 0.9 0.00 0.00 0.00 66 1020.6
20260506203953 70 161 0.9 0.9 0.00 0.00 0.00 63 1020.5
20260506203450 68 162 0.0 0.0 0.00 0.00 0.00 68 1020.8
20260506202947 68 139 1.7 1.7 0.00 0.00 0.00 67 1020.9
20260506202444 67 141 1.7 1.7 0.00 0.00 0.00 69 1020.5
20260506201941 66 36 1.7 2.6 0.00 0.00 0.00 71 1020.6
20260506201438 66 169 0.0 0.0 0.00 0.00 0.00 74 1020.6
20260506200934 67 169 0.9 0.9 0.00 0.00 0.00 72 1020.7
20260506200431 66 182 0.0 0.9 0.00 0.00 0.00 76 1020.8
20260506195927 66 163 0.9 0.9 0.00 0.00 0.00 75 1020.7
20260506195424 68 136 2.6 2.6 0.00 0.00 0.00 72 1020.6
20260506194921 66 155 0.0 0.0 0.00 0.00 0.00 72 1020.9
20260506194418 67 169 0.9 0.9 0.00 0.00 0.00 73 1020.9
20260506193915 65 171 0.9 0.9 0.00 0.00 0.00 76 1020.9
20260506193412 65 141 5.2 7.0 0.00 0.00 0.00 73 1020.9
20260506192908 65 157 0.9 0.9 0.00 0.00 0.00 75 1020.8
20260506192405 64 182 0.9 0.9 0.00 0.00 0.00 75 1020.8
20260506191902 64 171 0.9 0.9 0.00 0.00 0.00 80 1021.0
20260506191358 64 181 0.0 0.9 0.00 0.00 0.00 75 1020.9
20260506190855 62 141 2.6 2.6 0.00 0.00 0.00 79 1021.3
20260506190352 62 134 2.6 2.6 0.00 0.00 0.00 79 1021.1
20260506185849 61 178 0.9 0.9 0.00 0.00 0.00 81 1021.2
20260506185346 60 149 1.7 1.7 0.00 0.00 0.00 81 1021.3
20260506184843 62 161 1.7 2.6 0.00 0.00 0.00 79 1021.2
20260506184340 61 164 0.0 0.0 0.00 0.00 0.00 82 1021.0
20260506183837 62 144 3.5 4.3 0.00 0.00 0.00 81 1021.1
20260506183332 61 143 0.9 0.9 0.00 0.00 0.00 83 1021.1
20260506182830 61 157 0.0 0.0 0.00 0.00 0.00 83 1021.1
20260506182327 60 152 1.7 1.7 0.00 0.00 0.00 83 1021.3
20260506181825 60 114 1.7 2.6 0.00 0.00 0.00 83 1021.1
20260506181322 61 164 3.5 5.2 0.00 0.00 0.00 81 1021.0
20260506180819 61 159 0.0 0.0 0.00 0.00 0.00 82 1020.8
20260506180315 60 145 0.9 1.7 0.00 0.00 0.00 83 1020.9
20260506175812 59 166 0.0 0.0 0.00 0.00 0.00 85 1021.0
20260506175308 59 155 0.9 0.9 0.00 0.00 0.00 86 1021.1
20260506174801 58 154 0.0 0.9 0.00 0.00 0.00 86 1021.0
20260506174258 58 157 0.0 0.0 0.00 0.00 0.00 87 1021.2
20260506173755 57 150 1.7 2.6 0.00 0.00 0.00 86 1021.2
20260506173251 58 156 1.7 1.7 0.00 0.00 0.00 86 1021.0
20260506172749 58 171 0.0 0.9 0.00 0.00 0.00 86 1021.4
20260506172245 58 164 0.0 0.0 0.00 0.00 0.00 86 1021.2
20260506171743 57 154 0.9 0.9 0.00 0.00 0.00 87 1021.1
20260506171240 57 154 0.0 0.0 0.00 0.00 0.00 88 1020.9
20260506170738 56 172 0.0 0.9 0.00 0.00 0.00 89 1020.8
20260506170234 56 158 0.0 0.0 0.00 0.00 0.00 89 1020.8
20260506165733 56 146 1.7 1.7 0.00 0.00 0.00 88 1021.2
20260506165229 56 119 0.0 0.9 0.00 0.00 0.00 88 1021.0
20260506164726 56 146 0.0 0.0 0.00 0.00 0.00 89 1021.1
20260506164223 56 156 0.9 0.9 0.00 0.00 0.00 89 1021.0
20260506163720 56 183 0.0 0.9 0.00 0.00 0.00 90 1021.1
20260506163215 55 180 0.9 0.9 0.00 0.00 0.00 90 1021.0
20260506162711 55 160 0.0 0.0 0.00 0.00 0.00 90 1021.3
20260506162209 55 106 1.7 2.6 0.00 0.00 0.00 90 1021.2
20260506161706 55 154 0.0 0.0 0.00 0.00 0.00 90 1020.8
20260506161202 55 147 2.6 2.6 0.00 0.00 0.00 90 1020.7
20260506160700 55 133 1.7 1.7 0.00 0.00 0.00 91 1020.5
20260506160156 54 155 0.0 0.9 0.00 0.00 0.00 91 1020.6
20260506155655 54 123 1.7 2.6 0.00 0.00 0.00 90 1020.7
20260506155152 55 150 0.0 0.0 0.00 0.00 0.00 90 1020.8
20260506153259 54 148 0.0 0.0 0.00 0.00 0.00 91 1021.3
20260506152756 53 166 0.0 0.0 0.00 0.00 0.00 91 1021.0
20260506152254 53 169 0.9 0.9 0.00 0.00 0.00 91 1021.0
20260506151753 53 169 0.0 0.0 0.00 0.00 0.00 91 1021.2
20260506151249 53 168 0.9 0.9 0.00 0.00 0.00 91 1021.2
20260506150745 53 162 0.0 0.0 0.00 0.00 0.00 91 1021.1
20260506150243 53 161 0.0 0.0 0.00 0.00 0.00 90 1021.1
20260506145739 54 159 0.0 0.0 0.00 0.00 0.00 91 1021.1
20260506145236 54 170 0.0 0.0 0.00 0.00 0.00 91 1021.1
20260506144733 54 164 0.0 0.0 0.00 0.00 0.00 91 1020.7
20260506144230 53 155 0.0 0.9 0.00 0.00 0.00 92 1020.7
20260506143728 53 185 0.0 0.0 0.00 0.00 0.00 93 1020.5
20260506143225 53 161 0.0 0.0 0.00 0.00 0.00 93 1020.3
20260506142724 53 159 0.0 0.0 0.00 0.00 0.00 93 1020.1
20260506142221 52 161 0.0 0.0 0.00 0.00 0.00 94 1020.1
20260506141719 52 165 0.0 0.0 0.00 0.00 0.00 94 1020.1
20260506141217 51 151 0.0 0.9 0.00 0.00 0.00 95 1020.1
20260506140714 51 161 0.0 0.0 0.00 0.00 0.00 95 1020.1
20260506140211 51 158 0.0 0.9 0.00 0.00 0.00 95 1020.0
20260506135708 51 161 0.0 0.0 0.00 0.00 0.00 95 1019.9
20260506135204 51 161 0.0 0.0 0.00 0.00 0.00 95 1019.9
20260506134701 51 146 0.9 0.9 0.00 0.00 0.00 95 1019.8
20260506134157 51 161 0.0 0.0 0.00 0.00 0.00 94 1020.0
20260506133654 51 161 0.0 0.0 0.00 0.00 0.00 94 1020.1
20260506133151 52 161 0.0 0.0 0.00 0.00 0.00 94 1020.0
20260506132649 52 161 0.0 0.0 0.00 0.00 0.00 94 1019.9
20260506132145 52 159 0.0 0.0 0.00 0.00 0.00 94 1019.8
20260506131643 52 161 0.0 0.0 0.00 0.00 0.00 94 1019.8
20260506131139 52 161 0.0 0.0 0.00 0.00 0.00 94 1019.9
20260506130636 52 160 0.0 0.0 0.00 0.00 0.00 94 1019.7
20260506130133 52 161 0.0 0.0 0.00 0.00 0.00 94 1019.7
20260506125631 52 160 0.0 0.0 0.00 0.00 0.00 94 1019.7
20260506125129 52 160 0.0 0.0 0.00 0.00 0.00 94 1019.7
20260506124627 53 148 0.0 0.0 0.00 0.00 0.00 94 1019.7
20260506124124 53 158 0.0 0.0 0.00 0.00 0.00 94 1019.7
20260506123622 53 156 0.0 0.0 0.00 0.00 0.00 94 1019.8
20260506123120 53 162 0.0 0.0 0.00 0.00 0.00 94 1019.8
20260506122616 53 161 0.0 0.0 0.00 0.00 0.00 94 1019.7
20260506122114 53 162 0.0 0.0 0.00 0.00 0.00 94 1019.7
20260506121612 53 159 0.0 0.0 0.00 0.00 0.00 94 1019.5
20260506121108 52 159 0.0 0.0 0.00 0.00 0.00 94 1019.5
20260506120606 52 150 0.0 0.0 0.00 0.00 0.00 95 1019.8
20260506115601 52 162 0.0 0.0 0.00 0.00 0.00 95 1019.6
20260506115059 52 164 0.0 0.0 0.00 0.00 0.00 95 1019.2
20260506114556 52 162 0.0 0.0 0.00 0.00 0.00 95 1019.3
20260506114054 52 126 0.0 0.0 0.00 0.00 0.00 95 1019.3
20260506113552 52 45 2.6 4.3 0.00 0.00 0.00 95 1018.9
20260506113049 52 156 0.0 0.0 0.00 0.00 0.00 95 1019.0
20260506112545 52 166 0.0 0.9 0.00 0.00 0.00 96 1019.0
20260506112043 52 167 0.0 0.0 0.00 0.00 0.00 96 1019.0
20260506111541 52 156 0.0 0.0 0.00 0.00 0.00 96 1018.7
20260506111038 52 143 0.0 0.0 0.00 0.00 0.00 96 1018.6
20260506110535 52 145 0.9 0.9 0.00 0.00 0.00 96 1018.9